Regional Weather Roundup
Issued by NWS

Home | Current Version | Previous Version | Graphics & Text | Print | Product List | Glossary On
Versions: 1 2 3 4 5 6 7 8 9 10 11 12 13 14 15 16 17 18 19 20 21 22 23 24 25 26 27 28 29 30 31 32 33 34 35 36 37 38 39 40 41 42 43 44
000
ASUS45 KSLC 262310
RWRUT

UTAH REGIONAL WEATHER ROUNDUP
NATIONAL WEATHER SERVICE SALT LAKE CITY UT
400 PM MST FRI DEC 26 2014

UTZ001>011-023>025-270000-

NORTHERN UTAH

CITY           SKY/WX    TMP DP  RH WIND       PRES   REMARKS
BRIGHAM CITY   CLEAR     27  11  51 CALM      30.09R
HILL AFB       PTCLDY    26  12  56 NW7       30.06R WCI  18
LOGAN          CLEAR     24  14  65 CALM      30.08R
OGDEN          CLEAR     27  14  58 NW7       30.06R WCI  19
PROVO AIRPORT  MOCLDY    27  16  63 NW16      30.06R WCI  14
SALT LAKE CITY PTCLDY    28  18  66 N8        30.08R WCI  20
VERNAL         CLOUDY    25  17  72 SW7       29.95R WCI  17
WENDOVER       PTSUNNY   34  10  37 N21G26    30.12R WCI  22
HEBER CITY     CLOUDY    23  18  80 CALM      29.99R
WEST JORDAN    PTCLDY    27  18  69 N12       30.08R WCI  16

$$

UTZ012>022-026-027-270000-

SOUTHERN/CENTRAL UTAH

CITY           SKY/WX    TMP DP  RH WIND       PRES   REMARKS
BLANDING       CLOUDY    30  13  50 NW22      29.94R WCI  17
BRYCE CANYON   SUNNY     18   9  68 NW17G23   29.90R WCI   3
CEDAR CITY     CLOUDY    23  14  68 NE12G22   30.03R WCI  12
DELTA          CLOUDY    27  16  62 N13       30.08R WCI  16
MILFORD        CLOUDY    26  17  68 NE9       30.07R WCI  17
MOAB/CYNLANDS  PTCLDY    25  18  74 CALM      29.94R
PRICE          MOCLDY    28   8  43 NW17G25   29.90R WCI  16
ST GEORGE      MOCLDY    43  12  28 NE22G31   30.06R
KANAB          SUNNY     34   9  35 N13       30.00R WCI  25

$$

REGIONAL REPORTS     COLORADO/ARIZONA

CITY           SKY/WX    TMP DP  RH WIND       PRES   REMARKS
CRAIG, CO      LGT SNOW  17  12  80 W13       29.89R WCI   4
GRAND JUNCTION CLOUDY    26  20  77 N3        29.92R
RIFLE          CLOUDY    24  12  60 W18       29.89R WCI  10
MONTROSE       CLOUDY    26  18  71 NW10      29.88R WCI  16
CORTEZ         CLOUDY    26  21  81 W6        29.88R WCI  19
PAGE, AZ       MOSUNNY   41   7  24 W9        29.92R
GRAND CANYON   CLOUDY    26   9  48 W12G17    29.93R WCI  16
KINGMAN        SUNNY     43  10  26 NW17      30.03R
FLAGSTAFF      PTSUNNY   28   8  43 W9        29.91R WCI  19

$$

REGIONAL REPORTS    NEVADA/IDAHO/WYOMING

CITY           SKY/WX    TMP DP  RH WIND       PRES   REMARKS
LAS VEGAS, NV  MOSUNNY   49   7  18 NW10G22   30.04R
ELY            CLOUDY    22  12  65 N9        30.08R WCI  12
ELKO           CLOUDY    29  16  58 NW10      30.14R WCI  20
POCATELLO, ID  MOCLDY    22  18  85 SW13      30.12R WCI  10
BURLEY         PTCLDY    25  18  74 CALM      30.13R
EVANSTON, WY   LGT SNOW  16  11  80 N8        29.93R WCI   5
ROCK SPRINGS   CLOUDY    16   8  71 NE13      29.93R WCI   2

$$


USA.gov is the U.S. government's official web portal to all federal, state and local government web resources and services.